Year,Month,Day,Hour,Minute,Value (Times are PST for temperature in C)
2018,06,12,00,00,7.80
2018,06,12,00,01,7.70
2018,06,12,00,02,7.70
2018,06,12,00,03,7.70
2018,06,12,00,04,7.70
2018,06,12,00,05,7.70
2018,06,12,00,06,7.60
2018,06,12,00,07,7.60
2018,06,12,00,08,7.60
2018,06,12,00,09,7.60
2018,06,12,00,10,7.60
2018,06,12,00,11,7.50
2018,06,12,00,12,7.50
2018,06,12,00,13,7.50
2018,06,12,00,14,7.40
2018,06,12,00,15,7.40
2018,06,12,00,16,7.40
2018,06,12,00,17,7.40
2018,06,12,00,18,7.40
2018,06,12,00,19,7.40
2018,06,12,00,20,7.30
2018,06,12,00,21,7.30
2018,06,12,00,22,7.30
2018,06,12,00,23,7.30
2018,06,12,00,24,7.30
2018,06,12,00,25,7.30
2018,06,12,00,26,7.30
2018,06,12,00,27,7.20
2018,06,12,00,28,7.20
2018,06,12,00,29,7.20
2018,06,12,00,30,7.20
2018,06,12,00,31,7.20
2018,06,12,00,32,7.20
2018,06,12,00,33,7.20
2018,06,12,00,34,7.20
2018,06,12,00,35,7.20
2018,06,12,00,36,7.20
2018,06,12,00,37,7.20
2018,06,12,00,38,7.10
2018,06,12,00,39,7.10
2018,06,12,00,40,7.10
2018,06,12,00,41,7.10
2018,06,12,00,42,7.10
2018,06,12,00,43,7.00
2018,06,12,00,44,7.00
2018,06,12,00,45,7.00
2018,06,12,00,46,6.90
2018,06,12,00,47,6.90
2018,06,12,00,48,6.90
2018,06,12,00,49,6.90
2018,06,12,00,50,6.90
2018,06,12,00,51,6.80
2018,06,12,00,52,6.80
2018,06,12,00,53,6.80
2018,06,12,00,54,6.80
2018,06,12,00,55,6.80
2018,06,12,00,56,6.80
2018,06,12,00,57,6.70
2018,06,12,00,58,6.70
2018,06,12,00,59,6.70
2018,06,12,01,00,6.70
2018,06,12,01,01,6.70
2018,06,12,01,02,6.70
2018,06,12,01,03,6.70
2018,06,12,01,04,6.70
2018,06,12,01,05,6.70
2018,06,12,01,06,6.60
2018,06,12,01,07,6.60
2018,06,12,01,08,6.60
2018,06,12,01,09,6.60
2018,06,12,01,10,6.60
2018,06,12,01,11,6.60
2018,06,12,01,12,6.60
2018,06,12,01,13,6.60
2018,06,12,01,14,6.60
2018,06,12,01,15,6.60
2018,06,12,01,16,6.60
2018,06,12,01,17,6.60
2018,06,12,01,18,6.60
2018,06,12,01,19,6.50
2018,06,12,01,20,6.50
2018,06,12,01,21,6.50
2018,06,12,01,22,6.50
2018,06,12,01,23,6.50
2018,06,12,01,24,6.40
2018,06,12,01,25,6.40
2018,06,12,01,26,6.40
2018,06,12,01,27,6.40
2018,06,12,01,28,6.40
2018,06,12,01,29,6.40
2018,06,12,01,30,6.40
2018,06,12,01,31,6.30
2018,06,12,01,32,6.30
2018,06,12,01,33,6.30
2018,06,12,01,34,6.30
2018,06,12,01,35,6.30
2018,06,12,01,36,6.30
2018,06,12,01,37,6.30
2018,06,12,01,38,6.30
2018,06,12,01,39,6.20
2018,06,12,01,40,6.20
2018,06,12,01,41,6.20
2018,06,12,01,42,6.20
2018,06,12,01,43,6.20
2018,06,12,01,44,6.20
2018,06,12,01,45,6.10
2018,06,12,01,46,6.10
2018,06,12,01,47,6.10
2018,06,12,01,48,6.10
2018,06,12,01,49,6.10
2018,06,12,01,50,6.10
2018,06,12,01,51,6.10
2018,06,12,01,52,6.10
2018,06,12,01,53,6.10
2018,06,12,01,54,6.00
2018,06,12,01,55,6.00
2018,06,12,01,56,6.00
2018,06,12,01,57,6.00
2018,06,12,01,58,6.00
2018,06,12,01,59,5.90
2018,06,12,02,00,5.90
2018,06,12,02,01,5.90
2018,06,12,02,02,5.90
2018,06,12,02,03,5.90
2018,06,12,02,04,5.90
2018,06,12,02,05,5.90
2018,06,12,02,06,5.90
2018,06,12,02,07,5.90
2018,06,12,02,08,5.80
2018,06,12,02,09,5.80
2018,06,12,02,10,5.80
2018,06,12,02,11,5.80
2018,06,12,02,12,5.80
2018,06,12,02,13,5.80
2018,06,12,02,14,5.80
2018,06,12,02,15,5.80
2018,06,12,02,16,5.80
2018,06,12,02,17,5.80
2018,06,12,02,18,5.80
2018,06,12,02,19,5.80
2018,06,12,02,20,5.80
2018,06,12,02,21,5.80
2018,06,12,02,22,5.80
2018,06,12,02,23,5.80
2018,06,12,02,24,5.80
2018,06,12,02,25,5.80
2018,06,12,02,26,5.80
2018,06,12,02,27,5.80
2018,06,12,02,28,5.80
2018,06,12,02,29,5.80
2018,06,12,02,30,5.80
2018,06,12,02,31,5.80
2018,06,12,02,32,5.80
2018,06,12,02,33,5.80
2018,06,12,02,34,5.70
2018,06,12,02,35,5.70
2018,06,12,02,36,5.70
2018,06,12,02,37,5.70
2018,06,12,02,38,5.70
2018,06,12,02,39,5.70
2018,06,12,02,40,5.70
2018,06,12,02,41,5.70
2018,06,12,02,42,5.70
2018,06,12,02,43,5.70
2018,06,12,02,44,5.70
2018,06,12,02,45,5.70
2018,06,12,02,46,5.70
2018,06,12,02,47,5.60
2018,06,12,02,48,5.60
2018,06,12,02,49,5.60
2018,06,12,02,50,5.60
2018,06,12,02,51,5.60
2018,06,12,02,52,5.60
2018,06,12,02,53,5.60
2018,06,12,02,54,5.60
2018,06,12,02,55,5.60
2018,06,12,02,56,5.60
2018,06,12,02,57,5.60
2018,06,12,02,58,5.60
2018,06,12,02,59,5.60
2018,06,12,03,00,5.50
2018,06,12,03,01,5.50
2018,06,12,03,02,5.50
2018,06,12,03,03,5.50
2018,06,12,03,04,5.50
2018,06,12,03,05,5.50
2018,06,12,03,06,5.40
2018,06,12,03,07,5.40
2018,06,12,03,08,5.40
2018,06,12,03,09,5.40
2018,06,12,03,10,5.40
2018,06,12,03,11,5.40
2018,06,12,03,12,5.30
2018,06,12,03,13,5.30
2018,06,12,03,14,5.30
2018,06,12,03,15,5.30
2018,06,12,03,16,5.30
2018,06,12,03,17,5.30
2018,06,12,03,18,5.20
2018,06,12,03,19,5.20
2018,06,12,03,20,5.20
2018,06,12,03,21,5.20
2018,06,12,03,22,5.20
2018,06,12,03,23,5.20
2018,06,12,03,24,5.20
2018,06,12,03,25,5.20
2018,06,12,03,26,5.20
2018,06,12,03,27,5.20
2018,06,12,03,28,5.20
2018,06,12,03,29,5.20
2018,06,12,03,30,5.20
2018,06,12,03,31,5.20
2018,06,12,03,32,5.20
2018,06,12,03,33,5.20
2018,06,12,03,34,5.10
2018,06,12,03,35,5.10
2018,06,12,03,36,5.10
2018,06,12,03,37,5.10
2018,06,12,03,38,5.10
2018,06,12,03,39,5.10
2018,06,12,03,40,5.10
2018,06,12,03,41,5.10
2018,06,12,03,42,5.10
2018,06,12,03,43,5.10
2018,06,12,03,44,5.10
2018,06,12,03,45,5.10
2018,06,12,03,46,5.10
2018,06,12,03,47,5.10
2018,06,12,03,48,5.10
2018,06,12,03,49,5.10
2018,06,12,03,50,5.10
2018,06,12,03,51,5.10
2018,06,12,03,52,5.10
2018,06,12,03,53,5.10
2018,06,12,03,54,5.10
2018,06,12,03,55,5.10
2018,06,12,03,56,5.10
2018,06,12,03,57,5.10
2018,06,12,03,58,5.10
2018,06,12,03,59,5.10
2018,06,12,04,00,5.10
2018,06,12,04,01,5.10
2018,06,12,04,02,5.00
2018,06,12,04,03,5.00
2018,06,12,04,04,5.00
2018,06,12,04,05,5.00
2018,06,12,04,06,5.00
2018,06,12,04,07,5.00
2018,06,12,04,08,5.00
2018,06,12,04,09,5.00
2018,06,12,04,10,5.00
2018,06,12,04,11,5.00
2018,06,12,04,12,5.00
2018,06,12,04,13,5.00
2018,06,12,04,14,5.00
2018,06,12,04,15,4.90
2018,06,12,04,16,4.90
2018,06,12,04,17,4.90
2018,06,12,04,18,4.90
2018,06,12,04,19,4.90
2018,06,12,04,20,4.90
2018,06,12,04,21,4.90
2018,06,12,04,22,4.90
2018,06,12,04,23,4.90
2018,06,12,04,24,4.90
2018,06,12,04,25,4.90
2018,06,12,04,26,4.90
2018,06,12,04,27,4.90
2018,06,12,04,28,4.90
2018,06,12,04,29,4.90
2018,06,12,04,30,4.90
2018,06,12,04,31,4.90
2018,06,12,04,32,4.90
2018,06,12,04,33,4.90
2018,06,12,04,34,4.80
2018,06,12,04,35,4.90
2018,06,12,04,36,4.90
2018,06,12,04,37,4.90
2018,06,12,04,38,4.90
2018,06,12,04,39,4.90
2018,06,12,04,40,4.90
2018,06,12,04,41,4.90
2018,06,12,04,42,4.90
2018,06,12,04,43,4.90
2018,06,12,04,44,4.90
2018,06,12,04,45,4.90
2018,06,12,04,46,4.90
2018,06,12,04,47,4.80
2018,06,12,04,48,4.80
2018,06,12,04,49,4.80
2018,06,12,04,50,4.80
2018,06,12,04,51,4.90
2018,06,12,04,52,4.90
2018,06,12,04,53,4.90
2018,06,12,04,54,4.90
2018,06,12,04,55,4.90
2018,06,12,04,56,4.90
2018,06,12,04,57,4.90
2018,06,12,04,58,4.90
2018,06,12,04,59,4.90
2018,06,12,05,00,4.90
2018,06,12,05,01,4.90
2018,06,12,05,02,4.90
2018,06,12,05,03,4.90
2018,06,12,05,04,4.90
2018,06,12,05,05,4.90
2018,06,12,05,06,4.90
2018,06,12,05,07,4.90
2018,06,12,05,08,4.90
2018,06,12,05,09,4.90
2018,06,12,05,10,4.90
2018,06,12,05,11,4.90
2018,06,12,05,12,4.90
2018,06,12,05,13,4.90
2018,06,12,05,14,4.90
2018,06,12,05,15,4.90
2018,06,12,05,16,4.90
2018,06,12,05,17,4.90
2018,06,12,05,18,4.90
2018,06,12,05,19,4.90
2018,06,12,05,20,4.90
2018,06,12,05,21,4.90
2018,06,12,05,22,5.00
2018,06,12,05,23,5.00
2018,06,12,05,24,5.00
2018,06,12,05,25,5.00
2018,06,12,05,26,5.00
2018,06,12,05,27,5.00
2018,06,12,05,28,5.00
2018,06,12,05,29,5.00
2018,06,12,05,30,5.00
2018,06,12,05,31,5.00
2018,06,12,05,32,5.00
2018,06,12,05,33,5.00
2018,06,12,05,34,5.00
2018,06,12,05,35,5.00
2018,06,12,05,36,5.10
2018,06,12,05,37,5.10
2018,06,12,05,38,5.10
2018,06,12,05,39,5.10
2018,06,12,05,40,5.10
2018,06,12,05,41,5.10
2018,06,12,05,42,5.10
2018,06,12,05,43,5.10
2018,06,12,05,44,5.10
2018,06,12,05,45,5.10
2018,06,12,05,46,5.20
2018,06,12,05,47,5.20
2018,06,12,05,48,5.20
2018,06,12,05,49,5.20
2018,06,12,05,50,5.20
2018,06,12,05,51,5.20
2018,06,12,05,52,5.30
2018,06,12,05,53,5.30
2018,06,12,05,54,5.30
2018,06,12,05,55,5.30
2018,06,12,05,56,5.30
2018,06,12,05,57,5.30
2018,06,12,05,58,5.40
2018,06,12,05,59,5.40
2018,06,12,06,00,5.40
2018,06,12,06,01,5.40
2018,06,12,06,02,5.40
2018,06,12,06,03,5.50
2018,06,12,06,04,5.50
2018,06,12,06,05,5.50
2018,06,12,06,06,5.60
2018,06,12,06,07,5.60
2018,06,12,06,08,5.60
2018,06,12,06,09,5.60
2018,06,12,06,10,5.70
2018,06,12,06,11,5.70
2018,06,12,06,12,5.70
2018,06,12,06,13,5.70
2018,06,12,06,14,5.80
2018,06,12,06,15,5.80
2018,06,12,06,16,5.80
2018,06,12,06,17,5.80
2018,06,12,06,18,5.80
2018,06,12,06,19,5.90
2018,06,12,06,20,5.90
2018,06,12,06,21,5.90
2018,06,12,06,22,5.90
2018,06,12,06,23,6.00
2018,06,12,06,24,6.00
2018,06,12,06,25,6.10
2018,06,12,06,26,6.10
2018,06,12,06,27,6.10
2018,06,12,06,28,6.20
2018,06,12,06,29,6.20
2018,06,12,06,30,6.20
2018,06,12,06,31,6.30
2018,06,12,06,32,6.30
2018,06,12,06,33,6.30
2018,06,12,06,34,6.40
2018,06,12,06,35,6.40
2018,06,12,06,36,6.50
2018,06,12,06,37,6.50
2018,06,12,06,38,6.60
2018,06,12,06,39,6.60
2018,06,12,06,40,6.70
2018,06,12,06,41,6.70
2018,06,12,06,42,6.70
2018,06,12,06,43,6.80
2018,06,12,06,44,6.80
2018,06,12,06,45,6.90
2018,06,12,06,46,7.00
2018,06,12,06,47,7.00
2018,06,12,06,48,7.10
2018,06,12,06,49,7.20
2018,06,12,06,50,7.20
2018,06,12,06,51,7.20
2018,06,12,06,52,7.20
2018,06,12,06,53,7.30
2018,06,12,06,54,7.30
2018,06,12,06,55,7.40
2018,06,12,06,56,7.50
2018,06,12,06,57,7.50
2018,06,12,06,58,7.60
2018,06,12,06,59,7.70
2018,06,12,07,00,7.80
2018,06,12,07,01,7.80
2018,06,12,07,02,7.80
2018,06,12,07,03,7.90
2018,06,12,07,04,8.00
2018,06,12,07,05,8.00
2018,06,12,07,06,8.10
2018,06,12,07,07,8.10
2018,06,12,07,08,8.20
2018,06,12,07,09,8.20
2018,06,12,07,10,8.30
2018,06,12,07,11,8.30
2018,06,12,07,12,8.40
2018,06,12,07,13,8.50
2018,06,12,07,14,8.50
2018,06,12,07,15,8.60
2018,06,12,07,16,8.60
2018,06,12,07,17,8.70
2018,06,12,07,18,8.80
2018,06,12,07,19,8.80
2018,06,12,07,20,8.90
2018,06,12,07,21,9.00
2018,06,12,07,22,9.10
2018,06,12,07,23,9.20
2018,06,12,07,24,9.40
2018,06,12,07,25,9.50
2018,06,12,07,26,9.60
2018,06,12,07,27,9.80
2018,06,12,07,28,9.90
2018,06,12,07,29,10.00
2018,06,12,07,30,10.20
2018,06,12,07,31,10.30
2018,06,12,07,32,10.40
2018,06,12,07,33,10.50
2018,06,12,07,34,10.70
2018,06,12,07,35,10.70
2018,06,12,07,36,10.80
2018,06,12,07,37,10.90
2018,06,12,07,38,10.90
2018,06,12,07,39,11.00
2018,06,12,07,40,11.10
2018,06,12,07,41,11.10
2018,06,12,07,42,11.20
2018,06,12,07,43,11.20
2018,06,12,07,44,11.30
2018,06,12,07,45,11.30
2018,06,12,07,46,11.30
2018,06,12,07,47,11.30
2018,06,12,07,48,11.30
2018,06,12,07,49,11.30
2018,06,12,07,50,11.30
2018,06,12,07,51,11.40
2018,06,12,07,52,11.40
2018,06,12,07,53,11.40
2018,06,12,07,54,11.40
2018,06,12,07,55,11.40
2018,06,12,07,56,11.40
2018,06,12,07,57,11.50
2018,06,12,07,58,11.50
2018,06,12,07,59,11.60
2018,06,12,08,00,11.60
2018,06,12,08,01,11.60
2018,06,12,08,02,11.60
2018,06,12,08,03,11.70
2018,06,12,08,04,11.70
2018,06,12,08,05,11.70
2018,06,12,08,06,11.80
2018,06,12,08,07,11.80
2018,06,12,08,08,11.90
2018,06,12,08,09,11.90
2018,06,12,08,10,12.00
2018,06,12,08,11,12.00
2018,06,12,08,12,12.00
2018,06,12,08,13,12.10
2018,06,12,08,14,12.10
2018,06,12,08,15,12.20
2018,06,12,08,16,12.20
2018,06,12,08,17,12.20
2018,06,12,08,18,12.30
2018,06,12,08,19,12.30
2018,06,12,08,20,12.30
2018,06,12,08,21,12.40
2018,06,12,08,22,12.40
2018,06,12,08,23,12.40
2018,06,12,08,24,12.40
2018,06,12,08,25,12.40
2018,06,12,08,26,12.50
2018,06,12,08,27,12.50
2018,06,12,08,28,12.50
2018,06,12,08,29,12.50
2018,06,12,08,30,12.50
2018,06,12,08,31,12.50
2018,06,12,08,32,12.50
2018,06,12,08,33,12.60
2018,06,12,08,34,12.60
2018,06,12,08,35,12.60
2018,06,12,08,36,12.70
2018,06,12,08,37,12.70
2018,06,12,08,38,12.70
2018,06,12,08,39,12.70
2018,06,12,08,40,12.80
2018,06,12,08,41,12.80
2018,06,12,08,42,12.80
2018,06,12,08,43,12.80
2018,06,12,08,44,12.80
2018,06,12,08,45,12.90
2018,06,12,08,46,12.90
2018,06,12,08,47,12.90
2018,06,12,08,48,12.90
2018,06,12,08,49,12.90
2018,06,12,08,50,12.90
2018,06,12,08,51,12.90
2018,06,12,08,52,12.90
2018,06,12,08,53,12.90
2018,06,12,08,54,12.90
2018,06,12,08,55,13.00
2018,06,12,08,56,13.00
2018,06,12,08,57,13.00
2018,06,12,08,58,13.10
2018,06,12,08,59,13.10
2018,06,12,09,00,13.10
2018,06,12,09,01,13.10
2018,06,12,09,02,13.10
2018,06,12,09,03,13.10
2018,06,12,09,04,13.10
2018,06,12,09,05,13.10
2018,06,12,09,06,13.00
2018,06,12,09,07,13.00
2018,06,12,09,08,13.00
2018,06,12,09,09,13.00
2018,06,12,09,10,12.90
2018,06,12,09,11,12.90
2018,06,12,09,12,12.90
2018,06,12,09,13,12.90
2018,06,12,09,14,12.90
2018,06,12,09,15,12.90
2018,06,12,09,16,12.90
2018,06,12,09,17,12.90
2018,06,12,09,18,13.00
2018,06,12,09,19,13.00
2018,06,12,09,20,13.00
2018,06,12,09,21,13.00
2018,06,12,09,22,13.00
2018,06,12,09,23,13.00
2018,06,12,09,24,13.00
2018,06,12,09,25,13.00
2018,06,12,09,26,13.00
2018,06,12,09,27,13.00
2018,06,12,09,28,13.00
2018,06,12,09,29,13.10
2018,06,12,09,30,13.10
2018,06,12,09,31,13.10
2018,06,12,09,32,13.20
2018,06,12,09,33,13.20
2018,06,12,09,34,13.20
2018,06,12,09,35,13.20
2018,06,12,09,36,13.30
2018,06,12,09,37,13.30
2018,06,12,09,38,13.30
2018,06,12,09,39,13.30
2018,06,12,09,40,13.30
2018,06,12,09,41,13.40
2018,06,12,09,42,13.40
2018,06,12,09,43,13.40
2018,06,12,09,44,13.40
2018,06,12,09,45,13.40
2018,06,12,09,46,13.40
2018,06,12,09,47,13.40
2018,06,12,09,48,13.40
2018,06,12,09,49,13.40
2018,06,12,09,50,13.40
2018,06,12,09,51,13.40
2018,06,12,09,52,13.40
2018,06,12,09,53,13.40
2018,06,12,09,54,13.40
2018,06,12,09,55,13.40
2018,06,12,09,56,13.40
2018,06,12,09,57,13.40
2018,06,12,09,58,13.40
2018,06,12,09,59,13.40
2018,06,12,10,00,13.40
2018,06,12,10,01,13.40
2018,06,12,10,02,13.40
2018,06,12,10,03,13.40
2018,06,12,10,04,13.40
2018,06,12,10,05,13.40
2018,06,12,10,06,13.40
2018,06,12,10,07,13.40
2018,06,12,10,08,13.40
2018,06,12,10,09,13.40
2018,06,12,10,10,13.30
2018,06,12,10,11,13.30
2018,06,12,10,12,13.20
2018,06,12,10,13,13.10
2018,06,12,10,14,13.00
2018,06,12,10,15,12.90
2018,06,12,10,16,12.80
2018,06,12,10,17,12.70
2018,06,12,10,18,12.60
2018,06,12,10,19,12.50
2018,06,12,10,20,12.50
2018,06,12,10,21,12.40
2018,06,12,10,22,12.40
2018,06,12,10,23,12.40
2018,06,12,10,24,12.30
2018,06,12,10,25,12.30
2018,06,12,10,26,12.30
2018,06,12,10,27,12.40
2018,06,12,10,28,12.40
2018,06,12,10,29,12.40
2018,06,12,10,30,12.50
2018,06,12,10,31,12.50
2018,06,12,10,32,12.60
2018,06,12,10,33,12.60
2018,06,12,10,34,12.70
2018,06,12,10,35,12.70
2018,06,12,10,36,12.80
2018,06,12,10,37,12.80
2018,06,12,10,38,12.90
2018,06,12,10,39,13.00
2018,06,12,10,40,13.10
2018,06,12,10,41,13.20
2018,06,12,10,42,13.20
2018,06,12,10,43,13.30
2018,06,12,10,44,13.30
2018,06,12,10,45,13.30
2018,06,12,10,46,13.40
2018,06,12,10,47,13.40
2018,06,12,10,48,13.40
2018,06,12,10,49,13.50
2018,06,12,10,50,13.60
2018,06,12,10,51,13.60
2018,06,12,10,52,13.70
2018,06,12,10,53,13.70
2018,06,12,10,54,13.80
2018,06,12,10,55,13.80
2018,06,12,10,56,13.80
2018,06,12,10,57,13.80
2018,06,12,10,58,13.90
2018,06,12,10,59,13.90
2018,06,12,11,00,13.80
2018,06,12,11,01,13.80
2018,06,12,11,02,13.80
2018,06,12,11,03,13.80
2018,06,12,11,04,13.80
2018,06,12,11,05,13.80
2018,06,12,11,06,13.80
2018,06,12,11,07,13.80
2018,06,12,11,08,13.80
2018,06,12,11,09,13.80
2018,06,12,11,10,13.90
2018,06,12,11,11,13.90
2018,06,12,11,12,13.90
2018,06,12,11,13,13.90
2018,06,12,11,14,14.00
2018,06,12,11,15,14.00
2018,06,12,11,16,14.00
2018,06,12,11,17,14.00
2018,06,12,11,18,14.10
2018,06,12,11,19,14.10
2018,06,12,11,20,14.10
2018,06,12,11,21,14.10
2018,06,12,11,22,14.10
2018,06,12,11,23,14.00
2018,06,12,11,24,14.00
2018,06,12,11,25,13.90
2018,06,12,11,26,13.90
2018,06,12,11,27,13.80
2018,06,12,11,28,13.80
2018,06,12,11,29,13.70
2018,06,12,11,30,13.70
2018,06,12,11,31,13.60
2018,06,12,11,32,13.60
2018,06,12,11,33,13.50
2018,06,12,11,34,13.40
2018,06,12,11,35,13.40
2018,06,12,11,36,13.40
2018,06,12,11,37,13.30
2018,06,12,11,38,13.30
2018,06,12,11,39,13.30
2018,06,12,11,40,13.30
2018,06,12,11,41,13.30
2018,06,12,11,42,13.20
2018,06,12,11,43,13.20
2018,06,12,11,44,13.20
2018,06,12,11,45,13.10
2018,06,12,11,46,13.10
2018,06,12,11,47,13.10
2018,06,12,11,48,13.10
2018,06,12,11,49,13.00
2018,06,12,11,50,13.00
2018,06,12,11,51,13.00
2018,06,12,11,52,13.00
2018,06,12,11,53,13.00
2018,06,12,11,54,13.10
2018,06,12,11,55,13.10
2018,06,12,11,56,13.10
2018,06,12,11,57,13.20
2018,06,12,11,58,13.20
2018,06,12,11,59,13.30
2018,06,12,12,00,13.30
2018,06,12,12,01,13.40
2018,06,12,12,02,13.50
2018,06,12,12,03,13.60
2018,06,12,12,04,13.60
2018,06,12,12,05,13.70
2018,06,12,12,06,13.70
2018,06,12,12,07,13.80
2018,06,12,12,08,13.80
2018,06,12,12,09,13.80
2018,06,12,12,10,13.80
2018,06,12,12,11,13.90
2018,06,12,12,12,13.90
2018,06,12,12,13,13.90
2018,06,12,12,14,13.90
2018,06,12,12,15,13.90
2018,06,12,12,16,13.90
2018,06,12,12,17,13.90
2018,06,12,12,18,13.90
2018,06,12,12,19,13.90
2018,06,12,12,20,13.90
2018,06,12,12,21,13.90
2018,06,12,12,22,14.00
2018,06,12,12,23,13.90
2018,06,12,12,24,13.90
2018,06,12,12,25,13.90
2018,06,12,12,26,13.90
2018,06,12,12,27,13.80
2018,06,12,12,28,13.80
2018,06,12,12,29,13.80
2018,06,12,12,30,13.80
2018,06,12,12,31,13.80
2018,06,12,12,32,13.90
2018,06,12,12,33,13.90
2018,06,12,12,34,13.90
2018,06,12,12,35,13.90
2018,06,12,12,36,14.00
2018,06,12,12,37,14.00
2018,06,12,12,38,14.10
2018,06,12,12,39,14.10
2018,06,12,12,40,14.10
2018,06,12,12,41,14.10
2018,06,12,12,42,14.20
2018,06,12,12,43,14.20
2018,06,12,12,44,14.20
2018,06,12,12,45,14.20
2018,06,12,12,46,14.20
2018,06,12,12,47,14.20
2018,06,12,12,48,14.20
2018,06,12,12,49,14.20
2018,06,12,12,50,14.10
2018,06,12,12,51,14.10
2018,06,12,12,52,14.00
2018,06,12,12,53,14.00
2018,06,12,12,54,13.90
2018,06,12,12,55,13.90
2018,06,12,12,56,13.80
2018,06,12,12,57,13.80
2018,06,12,12,58,13.80
2018,06,12,12,59,13.80
2018,06,12,13,00,13.80
2018,06,12,13,01,13.80
2018,06,12,13,02,13.80
2018,06,12,13,03,13.80
2018,06,12,13,04,13.70
2018,06,12,13,05,13.70
2018,06,12,13,06,13.70
2018,06,12,13,07,13.70
2018,06,12,13,08,13.70
2018,06,12,13,09,13.70
2018,06,12,13,10,13.70
2018,06,12,13,11,13.70
2018,06,12,13,12,13.70
2018,06,12,13,13,13.70
2018,06,12,13,14,13.70
2018,06,12,13,15,13.70
2018,06,12,13,16,13.70
2018,06,12,13,17,13.70
2018,06,12,13,18,13.70
2018,06,12,13,19,13.70
2018,06,12,13,20,13.70
2018,06,12,13,21,13.70
2018,06,12,13,22,13.70
2018,06,12,13,23,13.70
2018,06,12,13,24,13.70
2018,06,12,13,25,13.70
2018,06,12,13,26,13.70
2018,06,12,13,27,13.80
2018,06,12,13,28,13.80
2018,06,12,13,29,13.80
2018,06,12,13,30,13.70
2018,06,12,13,31,13.70
2018,06,12,13,32,13.70
2018,06,12,13,33,13.70
2018,06,12,13,34,13.70
2018,06,12,13,35,13.70
2018,06,12,13,36,13.70
2018,06,12,13,37,13.70
2018,06,12,13,38,13.70
2018,06,12,13,39,13.70
2018,06,12,13,40,13.80
2018,06,12,13,41,13.80
2018,06,12,13,42,13.80
2018,06,12,13,43,13.80
2018,06,12,13,44,13.80
2018,06,12,13,45,13.80
2018,06,12,13,46,13.80
2018,06,12,13,47,13.80
2018,06,12,13,48,13.80
2018,06,12,13,49,13.80
2018,06,12,13,50,13.80
2018,06,12,13,51,13.90
2018,06,12,13,52,13.90
2018,06,12,13,53,13.90
2018,06,12,13,54,13.90
2018,06,12,13,55,14.00
2018,06,12,13,56,14.10
2018,06,12,13,57,14.10
2018,06,12,13,58,14.20
2018,06,12,13,59,14.20
2018,06,12,14,00,14.20
2018,06,12,14,01,14.30
2018,06,12,14,02,14.30
2018,06,12,14,03,14.40
2018,06,12,14,04,14.40
2018,06,12,14,05,14.50
2018,06,12,14,06,14.50
2018,06,12,14,07,14.60
2018,06,12,14,08,14.70
2018,06,12,14,09,14.70
2018,06,12,14,10,14.90
2018,06,12,14,11,15.00
2018,06,12,14,12,15.00
2018,06,12,14,13,15.00
2018,06,12,14,14,15.20
2018,06,12,14,15,15.20
2018,06,12,14,16,15.20
2018,06,12,14,17,15.30
2018,06,12,14,18,15.30
2018,06,12,14,19,15.30
2018,06,12,14,20,15.30
2018,06,12,14,21,15.30
2018,06,12,14,22,15.40
2018,06,12,14,23,15.40
2018,06,12,14,24,15.40
2018,06,12,14,25,15.40
2018,06,12,14,26,15.30
2018,06,12,14,27,15.30
2018,06,12,14,28,15.30
2018,06,12,14,29,15.30
2018,06,12,14,30,15.30
2018,06,12,14,31,15.30
2018,06,12,14,32,15.30
2018,06,12,14,33,15.30
2018,06,12,14,34,15.30
2018,06,12,14,35,15.30
2018,06,12,14,36,15.30
2018,06,12,14,37,15.20
2018,06,12,14,38,15.20
2018,06,12,14,39,15.20
2018,06,12,14,40,15.20
2018,06,12,14,41,15.10
2018,06,12,14,42,15.10
2018,06,12,14,43,15.10
2018,06,12,14,44,15.00
2018,06,12,14,45,15.00
2018,06,12,14,46,15.00
2018,06,12,14,47,15.00
2018,06,12,14,48,15.00
2018,06,12,14,49,14.90
2018,06,12,14,50,14.80
2018,06,12,14,51,14.80
2018,06,12,14,52,14.80
2018,06,12,14,53,14.70
2018,06,12,14,54,14.70
2018,06,12,14,55,14.70
2018,06,12,14,56,14.70
2018,06,12,14,57,14.70
2018,06,12,14,58,14.70
2018,06,12,14,59,14.70
2018,06,12,15,00,14.70
2018,06,12,15,01,14.60
2018,06,12,15,02,14.60
2018,06,12,15,03,14.60
2018,06,12,15,04,14.70
2018,06,12,15,05,14.70
2018,06,12,15,06,14.70
2018,06,12,15,07,14.70
2018,06,12,15,08,14.70
2018,06,12,15,09,14.70
2018,06,12,15,10,14.70
2018,06,12,15,11,14.80
2018,06,12,15,12,14.80
2018,06,12,15,13,14.80
2018,06,12,15,14,14.80
2018,06,12,15,15,14.80
2018,06,12,15,16,14.80
2018,06,12,15,17,14.80
2018,06,12,15,18,14.80
2018,06,12,15,19,14.70
2018,06,12,15,20,14.70
2018,06,12,15,21,14.80
2018,06,12,15,22,14.80
2018,06,12,15,23,14.90
2018,06,12,15,24,14.90
2018,06,12,15,25,15.00
2018,06,12,15,26,15.00
2018,06,12,15,27,15.00
2018,06,12,15,28,15.00
2018,06,12,15,29,15.00
2018,06,12,15,30,15.00
2018,06,12,15,31,15.00
2018,06,12,15,32,15.00
2018,06,12,15,33,15.00
2018,06,12,15,34,15.00
2018,06,12,15,35,15.00
2018,06,12,15,36,15.00
2018,06,12,15,37,15.00
2018,06,12,15,38,15.00
2018,06,12,15,39,15.00
2018,06,12,15,40,15.00
2018,06,12,15,41,15.00
2018,06,12,15,42,15.00
2018,06,12,15,43,15.00
2018,06,12,15,44,15.00
2018,06,12,15,45,15.00
2018,06,12,15,46,15.00
2018,06,12,15,47,15.00
2018,06,12,15,48,15.00
2018,06,12,15,49,15.00
2018,06,12,15,50,15.00
2018,06,12,15,51,15.00
2018,06,12,15,52,15.00
2018,06,12,15,53,15.00
2018,06,12,15,54,15.00
2018,06,12,15,55,15.00
2018,06,12,15,56,15.00
2018,06,12,15,57,15.00
2018,06,12,15,58,15.00
2018,06,12,15,59,15.00
2018,06,12,16,00,15.00
2018,06,12,16,01,14.90
2018,06,12,16,02,14.80
2018,06,12,16,03,14.70
2018,06,12,16,04,14.70
2018,06,12,16,05,14.70
2018,06,12,16,06,14.60
2018,06,12,16,07,14.60
2018,06,12,16,08,14.60
2018,06,12,16,09,14.60
2018,06,12,16,10,14.60
2018,06,12,16,11,14.60
2018,06,12,16,12,14.60
2018,06,12,16,13,14.60
2018,06,12,16,14,14.60
2018,06,12,16,15,14.60
2018,06,12,16,16,14.70
2018,06,12,16,17,14.70
2018,06,12,16,18,14.70
2018,06,12,16,19,14.70
2018,06,12,16,20,14.70
2018,06,12,16,21,14.80
2018,06,12,16,22,14.80
2018,06,12,16,23,14.80
2018,06,12,16,24,14.80
2018,06,12,16,25,14.80
2018,06,12,16,26,14.80
2018,06,12,16,27,14.80
2018,06,12,16,28,14.90
2018,06,12,16,29,14.90
2018,06,12,16,30,14.90
2018,06,12,16,31,14.90
2018,06,12,16,32,15.00
2018,06,12,16,33,15.00
2018,06,12,16,34,15.00
2018,06,12,16,35,15.00
2018,06,12,16,36,15.00
2018,06,12,16,37,15.00
2018,06,12,16,38,15.00
2018,06,12,16,39,15.00
2018,06,12,16,40,15.00
2018,06,12,16,41,15.00
2018,06,12,16,42,15.00
2018,06,12,16,43,15.00
2018,06,12,16,44,15.00
2018,06,12,16,45,15.10
2018,06,12,16,46,15.10
2018,06,12,16,47,15.20
2018,06,12,16,48,15.20
2018,06,12,16,49,15.20
2018,06,12,16,50,15.20
2018,06,12,16,51,15.20
2018,06,12,16,52,15.30
2018,06,12,16,53,15.30
2018,06,12,16,54,15.30
2018,06,12,16,55,15.30
2018,06,12,16,56,15.30
2018,06,12,16,57,15.30
2018,06,12,16,58,15.30
2018,06,12,16,59,15.30
2018,06,12,17,00,15.30
2018,06,12,17,01,15.40
2018,06,12,17,02,15.40
2018,06,12,17,03,15.40
2018,06,12,17,04,15.40
2018,06,12,17,05,15.40
2018,06,12,17,06,15.40
2018,06,12,17,07,15.40
2018,06,12,17,08,15.40
2018,06,12,17,09,15.40
2018,06,12,17,10,15.40
2018,06,12,17,11,15.40
2018,06,12,17,12,15.40
2018,06,12,17,13,15.40
2018,06,12,17,14,15.30
2018,06,12,17,15,15.20
2018,06,12,17,16,15.10
2018,06,12,17,17,15.00
2018,06,12,17,18,15.00
2018,06,12,17,19,15.00
2018,06,12,17,20,15.00
2018,06,12,17,21,15.00
2018,06,12,17,22,15.00
2018,06,12,17,23,15.00
2018,06,12,17,24,15.00
2018,06,12,17,25,15.00
2018,06,12,17,26,15.00
2018,06,12,17,27,15.00
2018,06,12,17,28,15.10
2018,06,12,17,29,15.20
2018,06,12,17,30,15.30
2018,06,12,17,31,15.30
2018,06,12,17,32,15.30
2018,06,12,17,33,15.40
2018,06,12,17,34,15.40
2018,06,12,17,35,15.50
2018,06,12,17,36,15.50
2018,06,12,17,37,15.60
2018,06,12,17,38,15.60